FW2519 Weather Reports


time (UTC)temp
F
wind
direction
speed
knots
gust
knots
rain 1hr
in
rain 24hr
in
rain mn
in
humidity
%
barometer
mb
20260505001549 70 224 0.0 2.6 0.00 0.00 0.00 27 957.0
20260505000057 71 224 0.9 5.2 0.00 0.00 0.00 25 956.9
20260504234547 72 222 0.9 4.3 0.00 0.00 0.00 24 956.7
20260504233008 73 227 1.7 5.2 0.00 0.00 0.00 22 956.5
20260504231505 74 224 2.6 9.6 0.00 0.00 0.00 21 956.5
20260504230100 75 227 3.5 9.6 0.00 0.00 0.00 20 956.5
20260504230002 75 242 3.5 9.6 0.00 0.00 0.00 20 956.5
20260504224609 77 217 2.6 7.8 0.00 0.00 0.00 20 956.4
20260504223134 77 196 4.3 12.2 0.00 0.00 0.00 18 956.6
20260504221558 78 234 2.6 7.8 0.00 0.00 0.00 18 956.5
20260504220058 78 233 3.5 9.6 0.00 0.00 0.00 16 956.4
20260504214554 79 200 4.3 7.8 0.00 0.00 0.00 15 956.5
20260504213103 78 240 4.3 9.6 0.00 0.00 0.00 17 956.4
20260504211552 78 136 3.5 8.7 0.00 0.00 0.00 18 956.5
20260504210057 78 140 1.7 11.3 0.00 0.00 0.00 20 956.5
20260504204549 78 240 3.5 7.8 0.00 0.00 0.00 19 956.6
20260504203059 79 281 2.6 7.8 0.00 0.00 0.00 17 956.7
20260504201542 78 221 2.6 6.1 0.00 0.00 0.00 17 956.8
20260504200038 77 134 4.3 8.7 0.00 0.00 0.00 20 957.2
20260504194506 77 231 2.6 9.6 0.00 0.00 0.00 19 957.4
20260504193004 76 236 3.5 7.8 0.00 0.00 0.00 22 957.4
20260504191603 76 232 1.7 8.7 0.00 0.00 0.00 22 957.7
20260504190100 76 221 1.7 8.7 0.00 0.00 0.00 19 957.5
20260504184559 76 131 3.5 7.0 0.00 0.00 0.00 18 957.8
20260504183054 76 219 0.9 7.8 0.00 0.00 0.00 23 958.0
20260504181549 75 202 1.7 6.1 0.00 0.00 0.00 22 958.1
20260504180045 75 206 1.7 7.0 0.00 0.00 0.00 23 958.4
20260504174541 74 138 1.7 7.8 0.00 0.00 0.00 24 958.3
20260504173034 73 117 1.7 5.2 0.00 0.00 0.00 24 958.4
20260504171529 73 144 3.5 6.1 0.00 0.00 0.00 25 958.8
20260504081506 43 222 0.0 1.7 0.00 0.00 0.00 39 959.2
20260504050007 50 221 0.0 0.0 0.00 0.00 0.00 56 959.2
20260504044512 50 221 0.0 0.0 0.00 0.00 0.00 56 959.2
20260504043005 50 221 0.0 0.0 0.00 0.00 0.00 55 959.3
20260504041559 51 221 0.0 1.7 0.00 0.00 0.00 55 959.3
20260504040107 51 223 0.0 0.0 0.00 0.00 0.00 55 959.5